GW3577 Weather Reports


Display with metric or nautical units.
time (UTC)temp
F
wind
direction
speed
MPH
gust
MPH
rain 1hr
in
rain 24hr
in
rain mn
in
humidity
%
barometer
mb
20260831145945 90 236 1.0 2.0 0.00 0.01 0.01 60 1020.6
20260831145441 89 236 4.0 4.0 0.00 0.01 0.01 60 1020.6
20260831144936 88 120 1.0 3.0 0.00 0.01 0.01 60 1020.6
20260831144432 88 120 0.0 2.0 0.00 0.01 0.01 59 1020.6
20260831143927 87 120 1.0 2.0 0.00 0.01 0.01 62 1021.0
20260831143422 87 120 2.0 4.0 0.00 0.01 0.01 65 1020.6
20260831142918 86 120 0.0 2.0 0.00 0.01 0.01 67 1021.0
20260831142414 85 120 3.0 4.0 0.00 0.01 0.01 68 1021.0
20260831141908 85 213 0.0 0.0 0.00 0.01 0.01 69 1021.0
20260831141402 85 177 0.0 2.0 0.00 0.01 0.01 70 1021.0
20260831140857 84 126 1.0 4.0 0.00 0.01 0.01 70 1021.0
20260831140351 84 122 4.0 6.0 0.00 0.01 0.01 71 1021.0
20260831135850 83 122 2.0 4.0 0.00 0.01 0.01 72 1021.0
20260831135345 83 97 1.0 3.0 0.00 0.01 0.01 71 1021.0
20260831134840 83 351 0.0 0.0 0.00 0.01 0.01 72 1021.0
20260831134337 82 351 0.0 0.0 0.00 0.01 0.01 74 1021.3
20260831133836 81 351 0.0 0.0 0.00 0.01 0.01 75 1021.3
20260831133335 80 351 0.0 0.0 0.00 0.01 0.01 76 1021.3
20260831132831 80 351 0.0 0.0 0.00 0.01 0.01 77 1021.3
20260831132326 79 351 0.0 0.0 0.00 0.01 0.01 80 1021.7
20260831131826 78 351 0.0 0.0 0.00 0.01 0.01 82 1021.3
20260831131322 78 351 0.0 0.0 0.00 0.01 0.01 84 1021.3
20260831130817 77 351 0.0 0.0 0.00 0.01 0.01 86 1021.3
20260831130312 77 351 0.0 0.0 0.00 0.01 0.01 86 1021.7
20260831125812 75 351 0.0 0.0 0.00 0.01 0.01 89 1021.7
20260831125307 74 351 0.0 0.0 0.00 0.01 0.01 92 1021.7
20260831124807 74 14 0.0 0.0 0.00 0.00 0.00 92 1021.7
20260831124304 74 14 0.0 0.0 0.00 0.00 0.00 92 1021.7
20260831123803 73 14 0.0 0.0 0.00 0.00 0.00 93 1021.7
20260831123302 73 14 0.0 0.0 0.00 0.00 0.00 94 1021.7
20260831122757 73 14 0.0 0.0 0.00 0.00 0.00 94 1021.3
20260831122253 73 14 0.0 0.0 0.00 0.00 0.00 95 1021.7
20260831121752 73 14 0.0 0.0 0.00 0.00 0.00 94 1021.7
20260831121249 73 14 0.0 0.0 0.00 0.00 0.00 95 1021.3
20260831120744 72 14 0.0 0.0 0.00 0.00 0.00 96 1021.3
20260831120238 72 14 0.0 0.0 0.00 0.00 0.00 97 1021.3
20260831115734 71 14 0.0 0.0 0.00 0.00 0.00 97 1021.7
20260831115230 71 14 0.0 0.0 0.00 0.00 0.00 97 1021.3
20260831114729 70 14 0.0 0.0 0.00 0.00 0.00 97 1021.3
20260831114229 69 14 0.0 0.0 0.00 0.00 0.00 98 1021.7
20260831113724 69 14 0.0 0.0 0.00 0.00 0.00 98 1021.7
20260831113219 69 14 0.0 0.0 0.00 0.00 0.00 98 1021.3
20260831112718 68 14 0.0 0.0 0.00 0.00 0.00 98 1021.3
20260831112213 68 14 0.0 0.0 0.00 0.00 0.00 98 1021.3
20260831111709 68 14 0.0 0.0 0.00 0.00 0.00 99 1021.3
20260831111205 68 14 0.0 0.0 0.00 0.00 0.00 99 1021.3
20260831110700 68 14 0.0 0.0 0.00 0.00 0.00 99 1021.3
20260831110155 67 14 0.0 0.0 0.00 0.00 0.00 98 1021.3
20260831105654 67 14 0.0 0.0 0.00 0.00 0.00 98 1021.0
20260831105149 67 14 0.0 0.0 0.00 0.00 0.00 99 1021.0
20260831104644 67 14 0.0 0.0 0.00 0.00 0.00 99 1021.0
20260831104141 67 14 0.0 0.0 0.00 0.00 0.00 99 1021.0
20260831103636 67 14 0.0 0.0 0.00 0.00 0.00 99 1021.0
20260831103132 67 14 0.0 0.0 0.00 0.00 0.00 99 1021.0
20260831102626 67 14 0.0 0.0 0.00 0.00 0.00 99 1021.0
20260831102121 67 14 0.0 0.0 0.00 0.00 0.00 99 1021.0
20260831101621 67 14 0.0 0.0 0.00 0.00 0.00 99 1021.0
20260831101117 67 14 0.0 0.0 0.00 0.00 0.00 99 1021.0
20260831100613 67 14 0.0 0.0 0.00 0.00 0.00 99 1021.0
20260831100109 67 14 0.0 0.0 0.00 0.00 0.00 99 1021.0
20260831095607 67 14 0.0 0.0 0.00 0.00 0.00 99 1021.0
20260831095102 67 14 0.0 0.0 0.00 0.00 0.00 99 1021.0
20260831094558 67 14 0.0 0.0 0.00 0.00 0.00 99 1021.0
20260831094054 67 14 0.0 0.0 0.00 0.00 0.00 99 1021.0
20260831093548 67 14 0.0 0.0 0.00 0.00 0.00 98 1021.0
20260831093039 67 14 0.0 0.0 0.00 0.00 0.00 98 1021.0
20260831092534 67 14 0.0 0.0 0.00 0.00 0.00 98 1021.0
20260831092031 66 14 0.0 0.0 0.00 0.00 0.00 98 1021.0
20260831091530 67 14 0.0 0.0 0.00 0.00 0.00 98 1021.0
20260831091026 67 14 0.0 0.0 0.00 0.00 0.00 97 1021.0
20260831090521 67 14 0.0 0.0 0.00 0.00 0.00 98 1021.0
20260831090017 67 14 0.0 0.0 0.00 0.00 0.00 98 1021.0
20260831085512 67 14 0.0 0.0 0.00 0.00 0.00 98 1021.0
20260831085007 67 14 0.0 0.0 0.00 0.00 0.00 98 1021.0
20260831084503 67 14 0.0 0.0 0.00 0.00 0.00 98 1021.0
20260831083959 67 14 0.0 0.0 0.00 0.00 0.00 98 1021.0
20260831083454 67 14 0.0 0.0 0.00 0.00 0.00 97 1021.0
20260831082953 67 14 0.0 0.0 0.00 0.00 0.00 98 1021.0
20260831082448 67 14 0.0 0.0 0.00 0.00 0.00 97 1021.0
20260831081942 67 14 0.0 0.0 0.00 0.00 0.00 98 1021.0
20260831081439 67 14 0.0 0.0 0.00 0.00 0.00 98 1021.0
20260831080934 67 14 0.0 0.0 0.00 0.00 0.00 98 1021.0
20260831080429 67 14 0.0 0.0 0.00 0.00 0.00 98 1021.0
20260831075924 67 14 0.0 0.0 0.00 0.00 0.00 98 1021.0
20260831075420 67 14 0.0 0.0 0.00 0.00 0.00 97 1021.0
20260831074915 67 14 0.0 0.0 0.00 0.00 0.00 97 1021.0
20260831074409 67 14 0.0 0.0 0.00 0.00 0.00 97 1021.0
20260831073903 68 14 0.0 0.0 0.00 0.00 0.00 97 1021.0
20260831073403 67 14 0.0 0.0 0.00 0.00 0.00 97 1021.0
20260831072858 68 14 0.0 0.0 0.00 0.00 0.00 96 1021.0
20260831072354 68 14 0.0 0.0 0.00 0.00 0.00 96 1020.6
20260831071850 68 14 0.0 0.0 0.00 0.00 0.00 96 1021.0
20260831071349 68 14 0.0 0.0 0.00 0.00 0.00 96 1021.0
20260831070843 68 14 0.0 0.0 0.00 0.00 0.00 96 1021.0
20260831070342 68 14 0.0 0.0 0.00 0.00 0.00 96 1020.6
20260831065842 68 14 0.0 0.0 0.00 0.00 0.00 96 1021.0
20260831065339 68 14 0.0 0.0 0.00 0.00 0.00 96 1020.6
20260831064835 68 14 0.0 0.0 0.00 0.00 0.00 96 1021.0
20260831064330 68 14 0.0 0.0 0.00 0.00 0.00 96 1021.0
20260831063826 68 14 0.0 0.0 0.00 0.00 0.00 96 1021.0
20260831063321 68 14 0.0 0.0 0.00 0.00 0.00 96 1021.0
20260831062820 68 14 0.0 0.0 0.00 0.00 0.00 96 1021.0
20260831062315 68 14 0.0 0.0 0.00 0.00 0.00 96 1021.0
20260831061815 68 14 0.0 0.0 0.00 0.00 0.00 96 1021.0
20260831061314 68 14 0.0 0.0 0.00 0.00 0.00 96 1021.0
20260831060810 68 14 0.0 0.0 0.00 0.00 0.00 96 1021.0
20260831060305 68 14 0.0 0.0 0.00 0.00 0.00 96 1021.0
20260831055804 68 14 0.0 0.0 0.00 0.00 0.00 96 1021.0
20260831055300 68 14 0.0 0.0 0.00 0.00 0.00 95 1021.0
20260831054800 68 14 0.0 0.0 0.00 0.00 0.00 95 1021.0
20260831054255 68 14 0.0 0.0 0.00 0.00 0.00 94 1021.3
20260831053754 69 14 0.0 0.0 0.00 0.00 0.00 94 1021.3
20260831053253 69 14 0.0 0.0 0.00 0.00 0.00 94 1021.3
20260831052748 69 14 0.0 0.0 0.00 0.00 0.00 94 1021.3
20260831052247 69 14 0.0 0.0 0.00 0.00 0.00 94 1021.3
20260831051745 69 14 0.0 0.0 0.00 0.00 0.00 93 1021.3
20260831051244 69 14 0.0 0.0 0.00 0.00 0.00 94 1021.3
20260831050739 69 14 0.0 0.0 0.00 0.00 0.00 92 1021.3
20260831050237 70 14 0.0 0.0 0.00 0.00 0.00 91 1021.3
20260831045732 70 14 0.0 0.0 0.00 0.00 0.00 92 1021.3
20260831045227 70 14 0.0 0.0 0.00 0.00 0.00 91 1021.3
20260831044722 71 14 0.0 0.0 0.00 0.00 0.00 90 1021.7
20260831044216 71 14 1.0 3.0 0.00 0.00 0.00 91 1021.7
20260831043713 70 14 0.0 0.0 0.00 0.00 0.00 91 1021.7
20260831043207 70 14 0.0 0.0 0.00 0.00 0.00 91 1021.7
20260831042706 70 14 0.0 0.0 0.00 0.00 0.00 92 1021.7
20260831042201 69 14 2.0 3.0 0.00 0.00 0.00 92 1021.7
20260831041656 70 14 0.0 0.0 0.00 0.00 0.00 91 1021.7
20260831041150 70 14 0.0 0.0 0.00 0.00 0.00 91 1021.7
20260831040645 70 14 0.0 0.0 0.00 0.00 0.00 92 1021.7
20260831040144 70 14 0.0 1.0 0.00 0.00 0.00 92 1021.7
20260831035644 70 14 0.0 0.0 0.00 0.00 0.00 91 1021.7
20260831035143 70 14 0.0 0.0 0.00 0.00 0.00 92 1021.7
20260831034642 71 14 0.0 0.0 0.00 0.00 0.00 91 1022.0
20260831034138 71 14 0.0 0.0 0.00 0.00 0.00 90 1021.7
20260831033633 71 14 0.0 0.0 0.00 0.00 0.00 89 1022.0
20260831033128 71 14 0.0 0.0 0.00 0.00 0.00 89 1022.0
20260831032628 71 14 0.0 0.0 0.00 0.00 0.00 88 1022.0
20260831032124 72 14 0.0 0.0 0.00 0.00 0.00 87 1021.7
20260831031618 72 14 0.0 0.0 0.00 0.00 0.00 86 1021.7
20260831031117 73 14 0.0 0.0 0.00 0.00 0.00 85 1021.7
20260831030616 73 14 0.0 0.0 0.00 0.00 0.00 85 1021.7
20260831030115 73 14 0.0 0.0 0.00 0.00 0.00 85 1021.7
20260831025614 73 14 0.0 0.0 0.00 0.00 0.00 86 1021.7
20260831025109 73 14 0.0 0.0 0.00 0.00 0.00 87 1021.7
20260831024606 73 14 0.0 0.0 0.00 0.00 0.00 86 1021.7
20260831024104 73 14 0.0 0.0 0.00 0.00 0.00 87 1021.7
20260831023602 74 14 0.0 0.0 0.00 0.00 0.00 85 1021.7
20260831023057 74 14 0.0 0.0 0.00 0.00 0.00 85 1021.7
20260831022556 75 14 0.0 0.0 0.00 0.00 0.00 84 1021.7
20260831022052 75 14 0.0 0.0 0.00 0.00 0.00 80 1021.7
20260831021550 75 14 0.0 0.0 0.00 0.00 0.00 82 1021.7
20260831021047 75 14 0.0 0.0 0.00 0.00 0.00 82 1021.7
20260831020542 75 14 0.0 3.0 0.00 0.00 0.00 81 1021.7
20260831020037 76 14 0.0 0.0 0.00 0.00 0.00 79 1021.7
20260831015532 77 14 0.0 0.0 0.00 0.00 0.00 77 1021.7
20260831015027 78 14 0.0 0.0 0.00 0.00 0.00 72 1021.7
20260831014522 78 311 0.0 0.0 0.00 0.00 0.00 70 1021.7
20260831014018 78 311 0.0 0.0 0.00 0.00 0.00 68 1021.7
20260831013514 79 311 0.0 0.0 0.00 0.00 0.00 68 1021.7
20260831013013 79 311 0.0 0.0 0.00 0.00 0.00 69 1021.3
20260831012508 79 311 0.0 0.0 0.00 0.00 0.00 69 1021.3
20260831012008 79 311 0.0 0.0 0.00 0.00 0.00 70 1021.3
20260831011502 80 338 1.0 4.0 0.00 0.00 0.00 66 1021.3
20260831010959 80 8 6.0 7.0 0.00 0.00 0.00 66 1021.3
20260831010458 80 51 0.0 3.0 0.00 0.00 0.00 67 1021.3
20260831005954 80 71 4.0 6.0 0.00 0.00 0.00 70 1021.0
20260831005450 81 82 3.0 5.0 0.00 0.00 0.00 67 1021.3
20260831004949 81 338 0.0 0.0 0.00 0.00 0.00 66 1021.0
20260831004446 81 338 3.0 5.0 0.00 0.00 0.00 66 1021.0
20260831003941 81 333 5.0 6.0 0.00 0.00 0.00 67 1021.0
20260831003437 80 330 7.0 11.0 0.00 0.00 0.00 68 1021.0
20260831002931 79 310 7.0 11.0 0.00 0.00 0.00 73 1021.0
20260831002430 79 319 3.0 5.0 0.00 0.00 0.00 76 1021.0
20260831001925 79 277 2.0 3.0 0.00 0.00 0.00 75 1021.0
20260831001420 79 277 2.0 4.0 0.00 0.00 0.00 75 1020.6
20260831000918 79 308 5.0 7.0 0.00 0.00 0.00 74 1020.6
20260831000413 80 309 4.0 5.0 0.00 0.00 0.00 74 1020.6
20260830235911 79 309 4.0 6.0 0.00 0.00 0.00 75 1020.6
20260830235406 79 309 4.0 5.0 0.00 0.00 0.00 76 1020.6
20260830234902 79 310 3.0 5.0 0.00 0.00 0.00 77 1020.6
20260830234357 80 225 0.0 0.0 0.00 0.00 0.00 77 1020.3
20260830233853 80 225 0.0 0.0 0.00 0.00 0.00 76 1020.6
20260830233348 80 225 0.0 0.0 0.00 0.00 0.00 73 1020.3
20260830232844 81 225 0.0 0.0 0.00 0.00 0.00 73 1020.6
20260830232339 81 225 0.0 0.0 0.00 0.00 0.00 72 1020.6
20260830231836 82 225 2.0 2.0 0.00 0.00 0.00 72 1020.6
20260830231336 83 225 0.0 2.0 0.00 0.00 0.00 65 1020.6
20260830230836 84 225 2.0 3.0 0.00 0.00 0.00 63 1020.6
20260830230331 85 225 2.0 3.0 0.00 0.00 0.00 61 1020.3
20260830225825 86 225 4.0 6.0 0.00 0.00 0.00 58 1020.6
20260830225321 86 225 3.0 4.0 0.00 0.00 0.00 59 1020.6
20260830224820 86 225 2.0 3.0 0.00 0.00 0.00 57 1020.6
20260830224315 86 233 5.0 6.0 0.00 0.00 0.00 58 1020.3
20260830223812 86 235 5.0 7.0 0.00 0.00 0.00 58 1020.3
20260830223308 87 239 4.0 6.0 0.00 0.00 0.00 58 1020.3
20260830222807 87 221 5.0 9.0 0.00 0.00 0.00 56 1020.3
20260830222306 87 247 5.0 7.0 0.00 0.00 0.00 56 1020.3
20260830221758 88 243 6.0 8.0 0.00 0.00 0.00 56 1020.3
20260830221255 88 246 3.0 4.0 0.00 0.00 0.00 55 1020.0
20260830220749 88 246 2.0 3.0 0.00 0.00 0.00 56 1020.3
20260830220248 88 217 7.0 10.0 0.00 0.00 0.00 56 1020.3
20260830215747 88 217 5.0 9.0 0.00 0.00 0.00 57 1020.0
20260830215242 88 262 6.0 8.0 0.00 0.00 0.00 57 1020.0
20260830214737 88 227 5.0 7.0 0.00 0.00 0.00 56 1020.3
20260830214237 89 231 7.0 9.0 0.00 0.00 0.00 55 1020.3
20260830213736 88 174 4.0 8.0 0.00 0.00 0.00 55 1020.0
20260830213231 88 243 0.0 2.0 0.00 0.00 0.00 56 1020.0
20260830212727 89 178 4.0 6.0 0.00 0.00 0.00 55 1020.0
20260830212223 89 179 3.0 5.0 0.00 0.00 0.00 55 1020.0
20260830211718 89 248 0.0 2.0 0.00 0.00 0.00 55 1020.0
20260830211217 89 234 7.0 9.0 0.00 0.00 0.00 55 1020.0
20260830210713 89 251 8.0 10.0 0.00 0.00 0.00 54 1020.0
20260830210212 89 247 7.0 10.0 0.00 0.00 0.00 54 1020.3
20260830205709 89 222 2.0 4.0 0.00 0.00 0.00 55 1020.3
20260830205205 89 202 4.0 7.0 0.00 0.00 0.00 54 1020.0
20260830204704 90 188 3.0 7.0 0.00 0.00 0.00 53 1020.0
20260830204203 90 224 2.0 4.0 0.00 0.00 0.00 55 1020.0
20260830203659 90 284 5.0 9.0 0.00 0.00 0.00 54 1020.0
20260830203154 89 247 6.0 9.0 0.00 0.00 0.00 54 1020.0
20260830202654 90 255 8.0 10.0 0.00 0.00 0.00 53 1020.0
20260830202149 91 159 4.0 8.0 0.00 0.00 0.00 54 1020.0
20260830201643 90 221 2.0 7.0 0.00 0.00 0.00 54 1020.0
20260830201138 90 210 5.0 6.0 0.00 0.00 0.00 55 1020.0
20260830200633 90 210 6.0 9.0 0.00 0.00 0.00 54 1020.0
20260830200133 90 233 7.0 11.0 0.00 0.00 0.00 55 1020.0
20260830195628 90 167 1.0 4.0 0.00 0.00 0.00 54 1020.0
20260830195126 90 171 2.0 5.0 0.00 0.00 0.00 54 1020.3
20260830194626 90 228 7.0 9.0 0.00 0.00 0.00 54 1020.3
20260830194120 89 173 3.0 6.0 0.00 0.00 0.00 53 1020.3
20260830193615 89 188 4.0 6.0 0.00 0.00 0.00 54 1020.3
20260830193109 89 174 4.0 8.0 0.00 0.00 0.00 55 1020.6
20260830192600 89 242 8.0 12.0 0.00 0.00 0.00 56 1020.6
20260830192059 89 230 6.0 9.0 0.00 0.00 0.00 54 1020.6
20260830191554 89 195 6.0 13.0 0.00 0.00 0.00 55 1020.6
20260830191050 89 237 6.0 10.0 0.00 0.00 0.00 56 1020.6
20260830190545 89 179 4.0 8.0 0.00 0.00 0.00 55 1020.6
20260830190040 89 255 4.0 8.0 0.00 0.00 0.00 58 1021.0
20260830185533 89 241 7.0 11.0 0.00 0.00 0.00 56 1021.0
20260830185030 89 221 6.0 8.0 0.00 0.00 0.00 56 1021.0
20260830184528 89 234 5.0 8.0 0.00 0.00 0.00 57 1021.3
20260830184023 88 266 4.0 7.0 0.00 0.00 0.00 59 1021.3
20260830183517 88 226 6.0 9.0 0.00 0.00 0.00 58 1021.3
20260830183013 88 191 4.0 6.0 0.00 0.00 0.00 59 1021.3
20260830182508 87 252 7.0 11.0 0.00 0.00 0.00 60 1021.7
20260830182004 88 220 8.0 11.0 0.00 0.00 0.00 59 1021.7
20260830181500 88 227 5.0 8.0 0.00 0.00 0.00 61 1021.7
20260830180959 87 195 4.0 7.0 0.00 0.00 0.00 60 1021.7
20260830180454 87 161 4.0 7.0 0.00 0.00 0.00 61 1022.0
20260830175952 87 214 7.0 11.0 0.00 0.00 0.00 61 1022.0
20260830175452 87 221 4.0 7.0 0.00 0.00 0.00 62 1022.0
20260830174942 87 241 7.0 11.0 0.00 0.00 0.00 61 1022.3
20260830174438 86 231 8.0 14.0 0.00 0.00 0.00 61 1022.3
20260830173933 86 203 4.0 6.0 0.00 0.00 0.00 60 1022.3
20260830173429 86 222 2.0 6.0 0.00 0.00 0.00 62 1022.7
20260830172924 86 241 8.0 15.0 0.00 0.00 0.00 61 1022.7
20260830172421 86 216 4.0 5.0 0.00 0.00 0.00 63 1022.7
20260830171916 86 234 4.0 6.0 0.00 0.00 0.00 64 1023.0
20260830171411 86 171 4.0 8.0 0.00 0.00 0.00 63 1023.0
20260830170906 86 114 4.0 5.0 0.00 0.00 0.00 63 1023.0
20260830170405 86 213 3.0 5.0 0.00 0.00 0.00 65 1023.0
20260830165903 86 241 5.0 6.0 0.00 0.00 0.00 66 1023.0
20260830165400 85 233 2.0 3.0 0.00 0.00 0.00 66 1023.3
20260830164856 84 173 2.0 5.0 0.00 0.00 0.00 66 1023.3
20260830164352 85 233 5.0 8.0 0.00 0.00 0.00 66 1023.3
20260830163848 84 217 0.0 2.0 0.00 0.00 0.00 69 1023.7
20260830163343 84 227 6.0 7.0 0.00 0.00 0.00 70 1023.3
20260830162838 84 272 4.0 5.0 0.00 0.00 0.00 68 1024.1
20260830162334 83 179 3.0 7.0 0.00 0.00 0.00 70 1024.1
20260830161834 82 224 4.0 6.0 0.00 0.00 0.00 71 1024.1
20260830161333 82 243 3.0 7.0 0.00 0.00 0.00 72 1024.1
20260830160829 81 224 6.0 9.0 0.00 0.00 0.00 73 1024.5
20260830160324 81 232 5.0 7.0 0.00 0.00 0.00 74 1024.5
20260830155820 81 233 5.0 6.0 0.00 0.00 0.00 74 1024.1
20260830155316 82 248 5.0 6.0 0.00 0.00 0.00 72 1024.5
20260830154816 82 190 4.0 8.0 0.00 0.00 0.00 71 1023.7
20260830154312 83 235 4.0 5.0 0.00 0.00 0.00 72 1024.1
20260830153809 83 254 6.0 9.0 0.00 0.00 0.00 73 1023.7
20260830153304 82 234 7.0 9.0 0.00 0.00 0.00 74 1024.1
20260830152802 81 255 3.0 5.0 0.00 0.00 0.00 74 1024.1
20260830152257 82 244 6.0 9.0 0.00 0.00 0.00 73 1024.1
20260830151757 82 185 5.0 7.0 0.00 0.00 0.00 74 1024.1
20260830151256 81 210 2.0 7.0 0.00 0.00 0.00 74 1024.1
20260830150751 81 135 3.0 5.0 0.00 0.00 0.00 75 1024.1
20260830150251 80 177 3.0 6.0 0.00 0.00 0.00 76 1024.1